Temperature
12 12 12 12 12 12 12 12 12 12 12 12 12 12 12 12 12 12 12 12 12 12 12 12 12 12 12 12 12 12 12 12 12 12 12 12 11 11 11 11 11 11 11
12 12 12 12 12 12 12 12 12 12 12 12 12 12 12 12 12 11 11 11 11 11 11 11 11 11 11 11 11 12 12 12 12 12 11 11 11 11 11 11 11 10 10
12 12 12 12 12 12 12 12 11 11 11 11 11 11 11 11 11 11 11 11 11 11 11 11 11 11 11 11 11 11 11 11 11 11 11 11 11 10 10 10 10 10 10
12 12 12 12 12 11 11 11 11 11 11 11 11 11 11 11 11 11 11 11 11 11 11 11 11 11 11 11 11 11 11 11 11 11 11 11 10 10 10 10 10 10 10
12 11 11 11 11 11 11 11 11 11 11 10 10 10 10 10 10 10 10 10 10 10 10 10 10 10 10 10 10 11 11 10 10 10 10 10 10 10 10 10 10 10 9
11 11 11 11 11 11 11 11 10 10 10 10 10 10 10 10 10 10 10 10 10 10 10 10 10 10 10 10 10 10 10 10 10 10 10 10 10 9 9 9 9 9 9
11 11 11 11 11 10 10 10 10 10 10 10 9 9 9 9 10 10 10 10 10 10 10 10 10 10 10 10 10 10 10 10 10 9 9 9 9 9 9 9 9 9 9
11 11 11 11 10 10 10 10 10 10 9 9 9 9 9 8 9 9 9 9 9 9 9 10 9 9 9 9 9 10 10 9 9 9 9 9 9 9 9 9 8 8 8
10 11 10 10 10 10 10 10 9 9 9 9 9 9 9 9 8 9 9 9 9 9 9 9 9 9 9 9 9 9 9 9 9 9 9 9 9 8 8 8 8 8 8
10 10 10 10 10 10 9 9 9 9 9 8 9 9 9 9 8 8 8 9 9 9 9 9 9 9 9 9 9 9 9 9 8 9 8 8 8 8 8 8 8 8 7
10 10 10 10 10 9 9 9 9 9 8 8 8 8 8 8 8 8 8 8 8 8 8 8 8 8 8 8 8 8 8 8 8 8 8 8 8 8 8 8 8 7 7
9 9 9 9 9 9 9 9 9 8 8 8 8 8 8 8 8 8 8 8 8 8 8 8 8 8 8 8 8 8 8 8 8 8 8 8 8 8 7 7 7 7 7
9 9 9 9 9 9 9 9 8 8 8 8 8 8 8 8 8 8 8 7 7 7 7 7 8 8 8 8 8 8 8 7 7 7 7 7 7 7 7 7 7 7 7
9 9 9 9 9 9 8 8 8 8 8 8 8 7 7 7 7 7 7 7 7 7 7 7 7 7 7 7 7 7 7 7 7 7 7 7 7 7 7 7 7 7 6
8 8 9 9 8 8 8 8 8 8 8 7 7 7 7 7 7 7 7 7 7 6 6 6 6 7 7 7 7 7 7 7 7 7 6 6 6 6 6 6 6 6 6
8 8 8 8 8 8 8 8 7 7 7 7 7 7 7 7 7 7 7 7 7 6 6 6 6 6 6 6 6 6 6 6 6 6 6 6 6 6 6 6 6 6 5
7 7 7 8 8 8 7 7 7 7 7 7 7 7 7 6 6 6 6 6 6 6 6 6 6 6 6 6 6 6 6 6 6 6 6 6 6 5 5 5 5 5 5
7 7 7 7 7 7 7 7 7 7 7 7 7 7 6 6 6 6 6 6 6 6 6 5 5 6 5 5 5 5 5 5 5 5 5 5 5 5 5 5 5 5 4
6 6 7 7 7 7 7 7 6 6 6 6 6 6 6 6 6 6 6 6 6 6 5 5 5 5 5 5 5 5 5 5 5 5 5 5 5 4 4 4 4 4 4
6 6 6 6 6 6 6 6 6 6 6 6 6 6 6 6 6 6 6 5 5 5 5 5 5 5 4 4 4 4 4 4 4 4 4 4 4 4 4 4 4 3 3
5 5 5 5 5 6 6 6 5 5 5 5 5 5 5 5 5 5 5 5 5 5 5 4 4 4 4 4 4 4 4 4 4 4 4 4 4 3 3 3 3 3 3
5 5 5 5 5 5 5 5 5 5 5 5 5 5 5 5 5 5 5 5 4 4 4 4 4 4 4 4 4 3 3 3 3 3 3 3 3 3 3 2 2 2 2
4 4 4 4 4 4 5 4 4 4 4 4 4 4 4 5 4 4 4 4 4 4 4 4 4 4 4 3 3 3 3 3 3 3 2 2 2 2 2 2 2 2 1
3 4 4 4 4 4 4 4 4 4 4 4 4 4 4 4 4 4 4 4 4 3 3 3 3 3 3 3 3 2 2 2 2 2 2 2 2 2 1 1 1 1 1
3 3 3 3 3 3 3 3 3 3 3 3 3 3 3 3 3 3 3 4 3 3 3 3 3 2 2 2 2 2 2 1 1 1 1 1 1 1 1 1 1 0 0
2 2 2 2 2 2 2 2 2 2 2 2 2 2 3 3 3 3 3 3 3 3 3 2 2 2 2 2 1 1 1 1 1 0 0 0 0 -0 -0 0 0 -0 -0
Wind_Speed
7 7 7 7 7 7 7 6 7 7 7 6 6 6 6 6 6 6 7 9 8 7 7 8 8 7 7 7 7 7 7 7 6 5 5 5 5 5 5 6 6 6 7
8 7 7 6 6 7 7 7 7 6 6 6 6 6 6 5 5 6 6 7 8 7 7 7 7 7 6 6 6 6 6 6 5 5 4 4 4 4 5 4 4 5 5
9 8 7 6 6 7 7 7 7 6 5 5 5 5 5 5 5 5 5 5 6 7 6 6 6 6 6 5 5 5 4 4 4 4 4 4 3 3 4 4 3 3 4
10 9 7 7 8 8 7 6 6 5 5 5 4 4 4 4 4 4 4 4 4 4 5 5 5 5 4 4 4 4 4 4 3 3 4 4 3 3 3 3 3 2 2
10 9 7 7 9 7 6 6 5 5 5 5 4 3 3 3 3 3 3 4 4 3 3 4 4 4 4 3 2 3 3 3 3 4 4 3 3 3 3 2 2 2 1
10 9 7 8 8 6 6 6 6 5 5 4 4 3 2 2 2 2 2 3 3 3 2 3 3 3 4 3 2 2 2 2 3 3 3 3 2 2 2 2 2 2 2
10 9 7 8 8 7 7 8 7 7 5 5 3 3 2 2 2 1 2 2 3 3 2 2 2 1 2 1 1 1 0 1 2 2 2 1 1 1 2 2 2 2 2
10 9 9 8 8 7 8 8 8 6 5 5 4 3 3 3 2 1 2 2 2 2 2 2 2 1 0 0 0 0 0 1 1 1 1 0 1 1 2 2 2 2 3
10 9 9 8 8 8 8 9 9 8 6 5 4 3 3 3 2 3 3 3 3 2 2 3 2 2 1 1 1 1 1 2 2 2 2 2 1 1 1 2 2 2 3
9 9 9 9 8 7 8 9 9 8 8 6 4 3 2 1 2 3 3 3 3 3 3 3 3 2 1 1 1 1 1 2 2 3 3 2 2 2 2 3 3 3 3
9 9 9 9 8 7 8 8 8 9 8 8 6 5 4 2 3 3 3 3 3 3 4 3 3 3 2 2 1 1 0 1 2 3 3 2 2 2 2 3 3 3 4
6 8 9 8 8 8 8 8 8 9 9 9 7 6 5 4 4 3 3 3 3 3 3 3 3 3 3 3 2 2 2 2 3 4 3 3 3 3 3 3 3 4 4
6 8 8 8 8 8 8 8 8 8 8 9 8 7 6 6 4 3 3 2 2 2 2 3 4 4 3 3 3 2 2 3 3 3 4 4 4 3 3 4 4 5 5
7 8 9 9 9 8 8 8 7 7 7 8 8 8 6 6 5 4 4 3 2 2 3 3 3 3 3 3 2 2 2 2 3 4 5 5 5 4 4 5 5 5 5
5 7 8 8 8 8 8 8 6 7 7 8 8 8 6 5 5 5 4 4 4 4 4 3 2 3 3 3 2 3 3 3 3 4 5 5 5 5 5 5 5 5 6
6 7 7 7 7 8 8 8 7 7 7 7 6 7 7 6 5 4 5 5 5 5 4 3 3 2 3 3 3 3 3 3 4 5 5 5 5 6 6 6 6 6 7
6 6 7 7 8 8 8 8 8 8 8 7 7 8 8 7 6 5 5 5 5 4 5 4 2 2 3 3 2 3 3 3 3 4 5 6 6 6 7 7 6 7 7
5 6 6 7 7 7 7 8 8 8 8 8 8 8 8 6 7 6 5 6 5 5 5 5 3 3 4 4 3 3 3 4 4 5 6 6 7 7 7 7 7 8 8
5 5 6 6 7 7 7 8 8 8 8 8 7 8 7 7 7 5 6 5 5 4 4 4 4 3 2 3 3 3 3 4 4 5 6 6 6 7 7 7 8 8 8
5 5 5 6 6 6 7 7 7 7 7 7 7 7 7 7 7 7 6 6 5 5 5 4 4 3 3 3 3 3 3 3 3 4 5 5 6 7 8 8 8 7 7
4 4 5 5 5 5 6 6 7 7 6 6 6 6 6 6 6 6 5 6 6 5 5 4 4 3 4 3 4 3 4 3 4 3 4 5 5 5 6 7 8 7 7
3 3 4 5 5 4 5 6 6 6 6 6 5 5 5 6 6 6 6 6 7 7 6 5 4 5 5 5 4 3 3 3 3 2 4 4 4 5 5 6 7 7 7
2 3 4 4 4 4 5 6 6 5 6 6 6 5 4 4 5 5 5 4 5 5 6 6 6 6 5 5 4 4 4 5 4 2 3 4 4 5 5 6 7 8 8
2 2 3 4 4 3 4 5 5 4 4 4 5 5 5 5 5 5 4 4 3 3 4 4 4 4 3 4 5 4 4 4 3 3 3 4 4 5 5 6 6 7 7
2 2 2 3 3 3 4 5 4 3 3 3 3 3 4 4 5 6 5 4 3 2 1 2 2 3 3 4 4 3 3 3 3 3 2 3 3 4 5 5 6 7 8
1 1 1 2 3 3 4 5 5 4 4 3 2 2 3 4 5 6 5 5 5 3 2 2 1 2 2 3 4 4 4 4 3 3 2 2 3 3 4 3 4 6 7
Wind_Direction
153 151 148 150 150 147 149 148 142 136 132 129 125 120 114 110 108 109 107 97 93 94 97 98 96 100 103 106 103 96 92 87 86 87 83 82 81 80 79 76 74 67 62
156 153 150 149 151 152 151 151 144 136 132 128 125 121 117 115 112 112 114 108 97 93 93 92 94 93 98 100 105 98 90 83 78 79 82 78 76 72 72 74 72 67 61
162 158 153 152 153 152 147 145 139 135 130 129 128 124 120 121 122 118 116 117 114 102 93 85 87 91 93 94 97 94 90 80 71 72 73 67 70 71 64 62 64 66 66
167 162 157 155 154 153 151 148 149 145 140 139 136 127 121 121 123 123 124 123 121 122 109 92 90 90 90 93 93 92 87 76 70 68 69 65 70 72 64 59 54 61 63
171 165 160 155 157 155 154 151 154 155 150 144 135 128 125 125 128 131 128 124 120 122 124 109 103 92 86 88 93 93 90 85 76 74 69 68 67 63 51 40 28 28 32
173 167 160 159 159 158 159 159 156 150 148 145 133 123 121 120 129 130 136 135 133 135 133 126 120 107 95 77 75 89 84 98 94 86 71 60 50 41 33 20 10 10 16
172 168 161 161 165 168 168 164 158 154 150 149 146 142 134 129 135 144 158 155 147 152 150 138 126 123 127 99 53 32 71 112 114 104 85 57 33 9 356 355 2 354 355
173 173 170 168 171 171 170 170 164 163 163 168 173 169 178 184 182 178 179 181 183 175 167 159 151 151 166 202 47 346 219 209 198 191 196 267 310 324 321 317 325 337 344
178 176 175 174 175 176 179 179 178 175 175 181 192 190 194 205 180 182 195 198 200 196 186 179 179 191 219 258 280 217 220 230 241 250 252 259 277 290 299 307 304 316 326
184 181 180 178 177 181 186 185 187 186 182 185 195 218 232 182 193 188 193 204 209 213 209 199 198 205 221 252 305 353 218 234 245 262 265 264 269 282 299 299 297 296 305
186 183 185 183 182 186 190 190 191 193 192 193 194 195 196 191 222 217 214 205 212 214 217 215 211 215 220 241 255 280 232 269 263 270 270 272 285 305 314 317 312 299 297
186 189 189 190 190 190 192 195 199 201 202 201 201 201 200 198 204 209 226 215 217 214 219 218 218 222 221 235 252 261 230 260 292 288 282 287 292 301 309 304 301 296 295
192 195 194 196 197 197 196 196 201 206 207 205 205 209 212 216 207 206 208 210 230 239 221 222 216 222 223 234 247 245 246 252 262 273 277 283 290 293 297 295 293 290 290
193 194 198 199 198 197 197 196 200 206 208 210 211 211 214 216 208 202 208 200 217 235 232 232 208 210 224 230 245 239 255 252 265 272 276 277 279 279 280 285 287 288 290
194 192 194 196 197 197 198 197 202 204 208 212 214 214 217 217 212 210 206 205 217 230 238 229 224 204 216 224 224 242 258 263 262 267 273 279 269 266 272 277 278 280 283
193 192 195 197 198 198 199 201 205 207 208 212 212 214 218 218 211 206 205 214 220 226 238 243 241 215 205 222 226 237 252 264 258 258 262 265 265 266 272 276 276 276 276
195 195 196 199 199 200 200 201 203 204 208 210 211 214 217 216 211 207 208 210 215 217 233 250 241 213 215 218 225 245 262 270 268 257 257 262 265 269 273 275 276 276 277
195 197 197 200 201 201 201 202 202 201 206 209 212 213 216 211 213 211 208 211 213 213 223 234 227 219 226 220 229 244 258 264 264 261 256 263 268 269 270 271 273 274 275
197 193 195 200 201 201 202 202 205 204 207 209 209 211 210 204 209 210 210 212 213 211 219 220 229 221 237 223 234 246 255 268 262 258 256 259 261 265 266 269 270 271 270
200 198 197 201 202 202 202 201 203 205 209 211 208 210 210 208 209 207 206 209 206 207 205 207 214 218 233 235 233 244 256 260 261 265 262 263 262 265 264 265 266 264 264
204 201 199 200 201 202 203 203 204 203 204 208 209 209 209 208 208 205 204 205 200 203 203 206 216 224 226 225 231 235 252 271 267 254 268 262 264 267 268 262 259 261 262
193 192 197 198 199 202 193 197 202 202 201 203 208 212 206 200 197 195 198 202 203 205 206 214 227 225 232 234 230 225 242 261 262 244 264 267 263 266 271 270 271 267 268
191 189 186 190 198 198 184 190 195 200 202 204 206 207 204 199 196 201 196 198 212 215 217 219 223 230 233 225 217 225 233 244 261 269 260 265 264 269 272 272 267 265 271
193 192 192 192 193 190 178 184 183 193 201 203 204 204 202 197 191 190 191 197 212 224 223 228 236 243 241 223 220 228 232 248 272 259 247 264 273 276 284 276 257 261 272
194 190 189 184 184 184 170 175 175 180 184 195 199 200 202 195 182 179 181 184 197 221 202 195 213 218 218 217 210 205 211 231 262 258 249 261 276 288 283 270 266 264 270
188 170 174 182 189 191 174 174 179 181 184 188 192 196 191 187 180 184 190 189 199 211 189 166 188 203 209 205 207 216 218 227 255 257 236 255 277 296 285 272 275 275 273
Height
1547 1549 1551 1553 1554 1556 1558 1559 1561 1562 1564 1565 1567 1568 1569 1570 1571 1571 1572 1573 1573 1574 1574 1574 1574 1574 1574 1574 1574 1574 1574 1573 1573 1572 1572 1572 1572 1571 1571 1570 1570 1569 1568
1545 1547 1549 1551 1553 1555 1557 1558 1560 1562 1563 1565 1566 1567 1569 1570 1571 1572 1572 1573 1573 1574 1574 1575 1575 1575 1575 1574 1574 1574 1574 1573 1573 1573 1572 1572 1571 1571 1571 1570 1570 1569 1568
1544 1545 1547 1549 1551 1553 1555 1557 1559 1561 1562 1564 1565 1567 1568 1569 1570 1571 1572 1573 1573 1574 1574 1574 1574 1575 1575 1574 1574 1574 1573 1573 1573 1572 1572 1571 1571 1571 1570 1570 1569 1569 1568
1542 1544 1546 1547 1549 1552 1554 1556 1558 1559 1561 1563 1564 1566 1567 1568 1569 1570 1571 1572 1572 1573 1573 1574 1574 1574 1574 1574 1574 1573 1573 1572 1572 1572 1571 1571 1571 1570 1570 1569 1569 1568 1567
1539 1542 1544 1546 1548 1550 1552 1554 1556 1558 1560 1562 1563 1565 1566 1567 1568 1569 1570 1571 1571 1572 1572 1572 1573 1573 1573 1573 1573 1573 1572 1572 1571 1571 1571 1570 1570 1569 1569 1568 1568 1567 1566
1537 1539 1542 1544 1546 1548 1550 1552 1554 1556 1558 1560 1562 1563 1565 1566 1567 1568 1569 1569 1570 1570 1571 1571 1571 1572 1572 1572 1572 1571 1571 1571 1570 1570 1569 1569 1568 1568 1567 1567 1566 1565 1565
1534 1537 1539 1541 1543 1545 1548 1550 1552 1554 1556 1558 1561 1562 1563 1564 1565 1566 1567 1567 1568 1569 1569 1569 1570 1570 1570 1570 1570 1570 1570 1569 1569 1568 1568 1567 1567 1566 1566 1565 1565 1564 1563
1532 1534 1537 1539 1541 1543 1545 1548 1550 1552 1554 1556 1558 1560 1562 1564 1563 1564 1564 1565 1566 1567 1567 1568 1568 1568 1568 1568 1568 1568 1568 1568 1567 1567 1566 1566 1565 1564 1564 1563 1563 1562 1561
1529 1531 1534 1536 1538 1540 1543 1545 1547 1549 1551 1554 1556 1558 1560 1561 1561 1562 1562 1563 1564 1565 1565 1566 1566 1566 1566 1566 1566 1566 1566 1566 1565 1565 1565 1564 1563 1563 1562 1561 1561 1560 1559
1526 1528 1531 1533 1535 1538 1540 1542 1544 1547 1549 1550 1553 1555 1557 1557 1559 1559 1560 1561 1561 1562 1562 1563 1563 1564 1564 1564 1564 1564 1564 1563 1563 1563 1562 1562 1561 1561 1560 1559 1558 1557 1557
1522 1525 1528 1530 1532 1534 1537 1539 1541 1543 1545 1547 1549 1551 1553 1554 1555 1557 1557 1558 1558 1559 1559 1560 1560 1561 1561 1562 1562 1562 1561 1561 1561 1560 1560 1559 1559 1558 1558 1557 1556 1555 1554
1519 1522 1524 1527 1529 1531 1533 1536 1538 1540 1542 1544 1546 1548 1549 1551 1552 1553 1554 1555 1555 1556 1556 1557 1557 1558 1558 1559 1559 1559 1559 1559 1558 1558 1557 1557 1556 1556 1555 1555 1554 1553 1552
1515 1517 1520 1523 1525 1527 1530 1532 1534 1537 1538 1540 1542 1544 1546 1547 1549 1550 1551 1552 1552 1553 1554 1554 1554 1554 1555 1555 1555 1556 1556 1555 1555 1555 1554 1554 1553 1553 1552 1552 1551 1550 1549
1511 1514 1517 1519 1521 1524 1526 1528 1530 1533 1535 1537 1538 1540 1542 1543 1545 1546 1548 1549 1549 1550 1551 1551 1551 1551 1552 1552 1552 1552 1552 1552 1552 1551 1551 1550 1550 1549 1549 1548 1548 1547 1546
1508 1511 1513 1515 1518 1520 1522 1524 1526 1528 1531 1533 1534 1536 1538 1539 1541 1542 1543 1545 1547 1547 1547 1548 1548 1547 1548 1548 1549 1549 1549 1548 1548 1548 1547 1547 1546 1546 1545 1545 1544 1543 1542
1505 1507 1509 1511 1514 1516 1518 1520 1522 1524 1526 1528 1529 1531 1533 1535 1536 1537 1539 1541 1542 1543 1543 1543 1544 1544 1545 1545 1545 1545 1545 1545 1545 1544 1544 1543 1543 1542 1541 1541 1540 1539 1538
1501 1503 1505 1507 1509 1511 1514 1516 1517 1519 1521 1523 1524 1526 1528 1530 1531 1533 1534 1536 1537 1538 1539 1539 1540 1540 1541 1541 1541 1541 1541 1541 1540 1540 1540 1539 1539 1538 1537 1536 1535 1534 1533
1497 1499 1501 1503 1505 1507 1509 1511 1513 1515 1517 1518 1520 1521 1523 1525 1526 1528 1530 1531 1532 1533 1535 1535 1535 1536 1537 1538 1538 1537 1537 1537 1536 1536 1536 1535 1534 1534 1533 1532 1531 1530 1529
1493 1495 1497 1499 1501 1503 1505 1506 1508 1510 1512 1513 1515 1517 1518 1520 1521 1523 1525 1526 1528 1529 1530 1530 1531 1532 1532 1533 1533 1533 1533 1532 1532 1532 1532 1531 1530 1529 1528 1527 1526 1525 1524
1489 1491 1493 1495 1497 1499 1500 1502 1504 1506 1507 1509 1511 1512 1514 1515 1517 1519 1520 1522 1523 1524 1525 1526 1526 1527 1528 1528 1529 1528 1528 1528 1528 1528 1527 1527 1526 1525 1523 1522 1521 1520 1519
1486 1488 1490 1491 1492 1494 1496 1498 1499 1501 1503 1505 1506 1508 1510 1511 1513 1515 1516 1517 1519 1520 1521 1521 1522 1523 1523 1524 1524 1524 1524 1524 1523 1523 1523 1522 1521 1520 1519 1517 1516 1515 1514
1482 1484 1485 1487 1488 1490 1492 1494 1496 1497 1498 1500 1502 1504 1506 1507 1509 1510 1512 1513 1515 1516 1517 1517 1517 1518 1519 1520 1520 1520 1520 1519 1519 1519 1518 1517 1517 1515 1514 1513 1512 1511 1509
1478 1480 1481 1483 1484 1486 1488 1490 1491 1493 1494 1496 1498 1500 1501 1503 1505 1506 1508 1509 1511 1512 1513 1514 1513 1514 1515 1515 1516 1515 1515 1515 1515 1514 1514 1512 1512 1510 1509 1508 1507 1505 1504
1474 1476 1477 1479 1481 1482 1484 1486 1488 1489 1490 1492 1494 1496 1497 1498 1500 1502 1504 1505 1506 1507 1508 1509 1510 1510 1511 1511 1511 1512 1511 1511 1510 1510 1509 1508 1506 1506 1505 1503 1502 1501 1499
1471 1472 1474 1475 1477 1479 1481 1482 1484 1485 1487 1488 1490 1492 1493 1495 1496 1498 1500 1500 1502 1503 1504 1504 1505 1506 1506 1507 1507 1507 1507 1506 1505 1505 1504 1503 1501 1500 1499 1498 1497 1496 1494
1468 1470 1471 1473 1474 1476 1477 1479 1481 1482 1483 1484 1486 1488 1490 1491 1493 1494 1495 1496 1497 1498 1499 1500 1500 1501 1501 1502 1502 1502 1502 1502 1501 1500 1499 1499 1497 1496 1494 1493 1492 1491 1489